Notices

What's New in latest Release from April 7th, 2021:

- Updated Glossary, including Speed of Maximum Gust, and Total Hourly Precipitation

- Updated national and regional climate services offices contacts and prices information

- Addition of station inventory lists for 1981-2010, 1971-2000, and 1961-1990 Normals.

If you haven't already, please take our survey and provide feedback about our website: https://eccc.sondage-survey.ca/f/LanguageSelection.aspx?s=442ca660-fcf1-47c0-95a9-59707d6fd709

Hourly Data Report for January 07, 2021

OTTAWA INTL A
ONTARIO
Current Station Operator: NAVCAN

45°19'00.000" N
75°40'00.000" W
114.90 m
6106001
71628
YOW

Download Data

Hourly Data (January 2021)
Hourly Data Report for January 7, 2021
TIME
LST
Temp Definition
°C
Dew Point Definition
°C
Rel Hum Definition
%
Precip. Amount Definition
mm

Wind Dir Definition
10's deg

Wind Spd Definition
km/h
Visibility Definition
km
Stn Press Definition
kPa
Hmdx Definition


Wind Chill Definition


Weather Definition


00:00 -3.1 -6.2 80   33 22 24.1 100.89   -9 LegendNANA
01:00 -2.8 -5.8 80   33 23 24.1 100.89   -9 Mostly Cloudy
02:00 -2.7 -6.0 78   33 28 24.1 100.94   -10 LegendNANA
03:00 -2.9 -6.0 80   35 19 24.1 100.99   -9 LegendNANA
04:00 -3.0 -6.3 78   34 19 24.1 101.01   -9 Cloudy
05:00 -3.2 -6.7 77   35 23 24.1 101.03   -10 LegendNANA
06:00 -3.5 -6.5 80   33 21 24.1 101.07   -10 LegendNANA
07:00 -3.6 -6.8 79   33 17 24.1 101.10   -9 Cloudy
08:00 -4.0 -6.9 80   32 19 24.1 101.14   -10 LegendNANA
09:00 -4.2 -7.0 81   32 23 24.1 101.20   -11 LegendNANA
10:00 -4.2 -7.2 79   32 23 24.1 101.22   -11 Cloudy
11:00 -4.4 -7.4 79   32 21 24.1 101.16   -11 LegendNANA
12:00 -4.9 -7.7 81   30 18 24.1 101.09   -11 LegendNANA
13:00 -5.3 -8.2 80   31 25 24.1 101.07   -13 Cloudy
14:00 -5.4 -8.7 78   30 21 24.1 101.07   -12 LegendNANA
15:00 -5.7 -9.1 77   31 23 24.1 101.10   -13 LegendNANA
16:00 -6.0 -9.4 77   30 22 24.1 101.12   -13 Mostly Cloudy
17:00 -6.5 -10.2 75   32 22 24.1 101.15   -14 LegendNANA
18:00 -6.5 -10.2 75   32 21 24.1 101.17   -14 LegendNANA
19:00 -6.3 -9.8 77   33 13 24.1 101.19   -12 Mostly Cloudy
20:00 -6.2 -9.6 77   33 22 24.1 101.17   -13 LegendNANA
21:00 -6.3 -9.6 77   32 21 24.1 101.15   -13 LegendNANA
22:00 -6.3 -9.2 80   32 18 24.1 101.12   -13 Cloudy
23:00 -6.5 -8.9 83   31 17 16.1 101.07   -13 LegendNANA

Notes on Data Quality.

Legend

  • E = Estimated
  • M = Missing
  • NA = Not Available*
  • [empty] = Indicates an unobserved value
Date modified: